Location: Vesunti
(61.5000°N, 22.8333°E)
Time: 05:01:40
(UTC+00:00)

NOSS 0 Rocket - Pass Details

Date: 17 February 2020
Orbit: 937 x 953 km, 70.0° (Epoch: 30 March)

Event Time Altitude Azimuth Distance (km) Brightness Sun altitude
Exits shadow 05:08:38 - 269° (W) 2,822 5.8 -7.6°
Reaches altitude 10° 05:09:02 10° 271° (W) 2,685 5.7 -7.6°
Maximum altitude 05:14:59 44° 343° (NNW) 1,302 4.5 -6.9°
Drops below altitude 10° 05:20:55 10° 54° (NE) 2,681 6.9 -6.2°
Sets 05:23:35 0° 62° (ENE) 3,624 7.8 -5.9°
